Location: Contre
(49.7477°N, 2.0963°E)
Time: 08:24:33
(UTC+00:00)

COSMOS 2428 - Pass Details

Date: 03 February 2023
Orbit: 843 x 858 km, 70.9° (Epoch: 23 March)

Event Time Altitude Azimuth Distance (km) Brightness Sun altitude
Rises 18:27:57 0° 159° (SSE) 3,391 5.7 -16.1°
Reaches altitude 10° 18:31:04 10° 142° (SE) 2,460 4.8 -16.6°
Enters shadow 18:32:26 14° 130° (SE) 2,157 4.4 -16.8°
